Weather History for Duluth Sky Harbor, MN

Change the Weather History Date:

Tuesday, April 2, 2013

  Actual Average Record
Temperature  
Mean Temperature 28 °F -  
Max Temperature 37 °F 40 °F 62 °F (1955)
Min Temperature 19 °F 25 °F 6 °F (1954)
Degree Days  
Heating Degree Days 37    
Moisture  
Dew Point 9 °F    
Average Humidity 47    
Maximum Humidity 74    
Minimum Humidity 24    
Precipitation  
Precipitation 0.00 in - - ()
Sea Level Pressure  
Sea Level Pressure 30.26 in    
Wind  
Wind Speed 9 mph (WNW)    
Max Wind Speed 13 mph    
Max Gust Speed 16 mph    
Visibility 10 miles    
Events      
Averages and records for this station are not official NWS values.
T = Trace of Precipitation, MM = Missing Value Source: NWS Daily Summary

Daily Weather History Graph

Daily Weather History Graph

Search for Another Location

Airport:

Trip Planner

Search our weather history database for the weather conditions in past years. The results will help you decide how hot, cold, wet, or windy it might be!

Date:

Astronomy

Apr. 02, 2013 Rise Set
Actual Time 6:45 AM CDT 7:39 PM CDT
Civil Twilight 6:14 AM CDT 8:09 PM CDT
Nautical Twilight 5:37 AM CDT 8:46 PM CDT
Astronomical Twilight 4:59 AM CDT 9:25 PM CDT
Moon 1:59 AM CDT (4/2) 11:21 AM CDT (4/2)
Length of Visible Light 13h 55m
Length of Day
12h 54m
Waning Gibbous, 55% of the Moon is Illuminated
Apr 2
Waning Gibbous
Apr 2
Last Quarter
Apr 10
New
Apr 18
First Quarter
Apr 25
Full

Hourly Weather History & Observations

Time (CDT) Temp. Windchill Dew Point Humidity Pressure Visibility Wind Dir Wind Speed Gust Speed Precip Events Conditions
12:14 AM 26.6 °F 15.7 °F 12.2 °F 55% 30.19 in 10.0 mi West 12.7 mph - N/A   Clear
12:33 AM 24.8 °F 14.6 °F 12.2 °F 59% 30.19 in 10.0 mi West 10.4 mph - N/A   Clear
12:54 AM 24.8 °F 13.4 °F 12.2 °F 59% 30.19 in 10.0 mi West 12.7 mph - N/A   Clear
1:13 AM 24.8 °F 14.0 °F 12.2 °F 59% 30.20 in 10.0 mi West 11.5 mph - N/A   Clear
1:33 AM 24.8 °F 14.6 °F 12.2 °F 59% 30.20 in 10.0 mi West 10.4 mph - N/A   Clear
1:53 AM 24.8 °F 14.6 °F 12.2 °F 59% 30.21 in 10.0 mi West 10.4 mph - N/A   Clear
2:13 AM 23.0 °F 14.7 °F 12.2 °F 63% 30.21 in 10.0 mi WSW 6.9 mph - N/A   Clear
2:34 AM 23.0 °F 13.9 °F 10.4 °F 59% 30.21 in 10.0 mi SW 8.1 mph - N/A   Clear
2:53 AM 23.0 °F 13.9 °F 12.2 °F 63% 30.21 in 10.0 mi SW 8.1 mph - N/A   Clear
3:13 AM 21.2 °F 12.6 °F 12.2 °F 68% 30.21 in 10.0 mi SW 6.9 mph - N/A   Clear
3:33 AM 21.2 °F 11.7 °F 12.2 °F 68% 30.20 in 10.0 mi WSW 8.1 mph - N/A   Clear
3:53 AM 21.2 °F 13.6 °F 10.4 °F 63% 30.20 in 10.0 mi West 5.8 mph - N/A   Clear
4:14 AM 21.2 °F 10.9 °F 12.2 °F 68% 30.20 in 10.0 mi WSW 9.2 mph - N/A   Clear
4:33 AM 21.2 °F 11.7 °F 12.2 °F 68% 30.21 in 10.0 mi WSW 8.1 mph - N/A   Clear
4:53 AM 21.2 °F 11.7 °F 12.2 °F 68% 30.21 in 10.0 mi WSW 8.1 mph - N/A   Clear
5:14 AM 21.2 °F 12.6 °F 12.2 °F 68% 30.22 in 10.0 mi SW 6.9 mph - N/A   Clear
5:33 AM 19.4 °F 11.5 °F 12.2 °F 74% 30.22 in 10.0 mi SSW 5.8 mph - N/A   Clear
5:53 AM 19.4 °F 10.4 °F 12.2 °F 74% 30.22 in 10.0 mi SSW 6.9 mph - N/A   Clear
6:14 AM 19.4 °F 11.5 °F 12.2 °F 74% 30.22 in 10.0 mi SW 5.8 mph - N/A   Clear
6:33 AM 19.4 °F 10.4 °F 12.2 °F 74% 30.23 in 10.0 mi SSW 6.9 mph - N/A   Clear
6:53 AM 19.4 °F 9.5 °F 12.2 °F 74% 30.23 in 10.0 mi SSW 8.1 mph - N/A   Clear
7:14 AM 19.4 °F 11.5 °F 12.2 °F 74% 30.24 in 10.0 mi SW 5.8 mph - N/A   Scattered Clouds
7:33 AM 19.4 °F 10.4 °F 12.2 °F 74% 30.25 in 10.0 mi SSW 6.9 mph - N/A   Scattered Clouds
7:53 AM 21.2 °F - 12.2 °F 68% 30.25 in 10.0 mi Calm Calm - N/A   Scattered Clouds
8:14 AM 21.2 °F 13.6 °F 12.2 °F 68% 30.26 in 10.0 mi SSW 5.8 mph - N/A   Clear
8:33 AM 21.2 °F 11.7 °F 12.2 °F 68% 30.26 in 10.0 mi SW 8.1 mph - N/A   Clear
8:53 AM 21.2 °F 16.4 °F 12.2 °F 68% 30.27 in 10.0 mi SSW 3.5 mph - N/A   Clear
9:33 AM 23.0 °F 17.0 °F 12.2 °F 63% 30.27 in 10.0 mi SW 4.6 mph - N/A   Clear
9:54 AM 24.8 °F 16.1 °F 12.2 °F 59% 30.28 in 10.0 mi West 8.1 mph - N/A   Clear
10:13 AM 24.8 °F 16.1 °F 12.2 °F 59% 30.27 in 10.0 mi West 8.1 mph - N/A   Clear
10:33 AM 26.6 °F 20.0 °F 12.2 °F 55% 30.27 in 10.0 mi West 5.8 mph - N/A   Clear
10:54 AM 26.6 °F 22.6 °F 12.2 °F 55% 30.28 in 10.0 mi WSW 3.5 mph - N/A   Clear
11:13 AM 28.4 °F - 10.4 °F 47% 30.28 in 10.0 mi Calm Calm - N/A   Clear
11:33 AM 28.4 °F 24.6 °F 8.6 °F 43% 30.28 in 10.0 mi West 3.5 mph - N/A   Clear
11:54 AM 32.0 °F 24.8 °F 8.6 °F 38% 30.28 in 10.0 mi WNW 8.1 mph - N/A   Clear
12:13 PM 32.0 °F 24.8 °F 6.8 °F 35% 30.28 in 10.0 mi NNW 8.1 mph - N/A   Clear
12:33 PM 33.8 °F 26.4 °F 6.8 °F 32% 30.28 in 10.0 mi NNW 9.2 mph - N/A   Clear
12:53 PM 33.8 °F 25.8 °F 6.8 °F 32% 30.28 in 10.0 mi NW 10.4 mph - N/A   Clear
1:14 PM 33.8 °F 27.7 °F 6.8 °F 32% 30.27 in 10.0 mi NW 6.9 mph - N/A   Clear
1:33 PM 33.8 °F 27.7 °F 5.0 °F 30% 30.27 in 10.0 mi NNW 6.9 mph - N/A   Clear
1:53 PM 33.8 °F 29.6 °F 5.0 °F 30% 30.27 in 10.0 mi WNW 4.6 mph - N/A   Clear
2:14 PM 35.6 °F 32.8 °F 5.0 °F 28% 30.27 in 10.0 mi NW 3.5 mph - N/A   Clear
2:33 PM 35.6 °F 27.1 °F 8.6 °F 33% 30.27 in 10.0 mi WNW 12.7 mph - N/A   Clear
2:54 PM 37.4 °F 29.3 °F 6.8 °F 28% 30.27 in 10.0 mi NW 12.7 mph 16.1 mph N/A   Clear
3:14 PM 35.6 °F 29.2 °F 6.8 °F 30% 30.27 in 10.0 mi WNW 8.1 mph - N/A   Clear
3:33 PM 37.4 °F 30.3 °F 5.0 °F 26% 30.27 in 10.0 mi NW 10.4 mph - N/A   Clear
3:54 PM 37.4 °F 31.4 °F 6.8 °F 28% 30.27 in 10.0 mi WNW 8.1 mph 11.5 mph N/A   Clear
4:13 PM 37.4 °F 29.3 °F 8.6 °F 30% 30.27 in 10.0 mi NW 12.7 mph - N/A   Clear
4:33 PM 37.4 °F 32.1 °F 3.2 °F 24% 30.27 in 10.0 mi NW 6.9 mph - N/A   Clear
4:48 PM 37.4 °F 30.3 °F 8.6 °F 30% 30.27 in 10.0 mi WNW 10.4 mph 16.1 mph N/A   Clear
5:20 PM 37.4 °F 30.8 °F 5.0 °F 26% 30.28 in 10.0 mi NW 9.2 mph - N/A   Clear
5:33 PM 37.4 °F 31.4 °F 3.2 °F 24% 30.28 in 10.0 mi NNW 8.1 mph - N/A   Clear
5:54 PM 37.4 °F 30.8 °F 6.8 °F 28% 30.28 in 10.0 mi NNW 9.2 mph - N/A   Clear
6:13 PM 37.4 °F 29.8 °F 6.8 °F 28% 30.28 in 10.0 mi NW 11.5 mph - N/A   Clear
6:33 PM 35.6 °F 28.6 °F 6.8 °F 30% 30.29 in 10.0 mi NW 9.2 mph - N/A   Clear
6:54 PM 35.6 °F 29.2 °F 6.8 °F 30% 30.29 in 10.0 mi NW 8.1 mph - N/A   Clear
7:13 PM 35.6 °F 28.6 °F 3.2 °F 26% 30.29 in 10.0 mi NW 9.2 mph - N/A   Clear
7:33 PM 35.6 °F 28.6 °F 3.2 °F 26% 30.30 in 10.0 mi NW 9.2 mph - N/A   Clear
7:54 PM 35.6 °F 28.6 °F 3.2 °F 26% 30.30 in 10.0 mi NNW 9.2 mph - N/A   Clear
8:13 PM 35.6 °F 29.9 °F 3.2 °F 26% 30.30 in 10.0 mi NW 6.9 mph - N/A   Clear
8:33 PM 33.8 °F 28.6 °F 1.4 °F 25% 30.31 in 10.0 mi NW 5.8 mph - N/A   Clear
8:54 PM 33.8 °F 28.6 °F 10.4 °F 38% 30.31 in 10.0 mi North 5.8 mph - N/A   Clear
9:13 PM 33.8 °F 26.4 °F 12.2 °F 41% 30.32 in 10.0 mi North 9.2 mph - N/A   Clear
9:34 PM 33.8 °F 26.4 °F 6.8 °F 32% 30.32 in 10.0 mi North 9.2 mph - N/A   Clear
9:53 PM 33.8 °F 27.7 °F 8.6 °F 35% 30.33 in 10.0 mi North 6.9 mph - N/A   Clear
10:14 PM 32.0 °F 25.6 °F 8.6 °F 38% 30.33 in 10.0 mi North 6.9 mph - N/A   Clear
10:33 PM 30.2 °F 23.4 °F 8.6 °F 40% 30.34 in 10.0 mi North 6.9 mph - N/A   Clear
10:53 PM 30.2 °F 22.6 °F 5.0 °F 34% 30.34 in 10.0 mi North 8.1 mph - N/A   Clear
11:14 PM 30.2 °F 21.3 °F 6.8 °F 37% 30.34 in 10.0 mi North 10.4 mph - N/A   Clear
11:33 PM 30.2 °F 21.3 °F 6.8 °F 37% 30.35 in 10.0 mi North 10.4 mph - N/A   Clear
11:53 PM 30.2 °F 22.6 °F 6.8 °F 37% 30.35 in 10.0 mi NNE 8.1 mph - N/A   Clear